Regional Weather Roundup
Issued by NWS Newport/Morehead, NC

Current Version | Previous Version | Text Only | Print | Product List | Glossary On
Versions: 1 2 3 4 5 6 7 8 9 10 11 12 13 14 15 16 17 18 19 20 21 22 23 24 25 26 27 28 29 30 31 32 33 34 35 36 37 38 39 40 41 42 43 44 45 46 47 48 49 50
000
ASUS42 KMHX 010825
RWRMHX
WEATHER ROUNDUP FOR EASTERN NORTH CAROLINA
NATIONAL WEATHER SERVICE NEWPORT/MOREHEAD CITY NC
400 AM EDT TUE SEP 01 2015

NOTE: "FAIR" INDICATES FEW OR NO CLOUDS BELOW 12,000 FEET
WITH NO SIGNIFICANT WEATHER AND/OR OBSTRUCTIONS TO VISIBILITY

NCZ015>017-031-032-045>047-102-103-010900-
NORTH COAST

CITY           SKY/WX    TMP DP  RH WIND       PRES   REMARKS
EDENTON        CLOUDY    70  69  98 CALM      30.03F FOG
ELIZABETH CITY CLOUDY    74  72  93 CALM      30.03F
KITTY HAWK     CLOUDY    75  73  94 CALM      30.02F
MANTEO         CLOUDY    74  74  98 NE7       30.03F

$$

NCZ045>047-081-094-103-104-010900-
CENTRAL COAST

CITY           SKY/WX    TMP DP  RH WIND       PRES   REMARKS
FRISCO         MOCLDY    78  76  93 W3        30.01F
SWANQUARTER    NOT AVBL

$$

NCZ095-097-098-100-101-010900-
SOUTHERN COAST

CITY           SKY/WX    TMP DP  RH WIND       PRES   REMARKS
BEAUFORT       CLOUDY    76  76 100 NW9       30.01F
CEDAR ISLAND   NOT AVBL
JACKSONVILLE   CLOUDY    75  72  90 NW7       30.03S
PINEY ISLAND   LGT RAIN N/A N/A N/A NW5       30.01F
WILMINGTON     CLOUDY    73  72  96 NW3       30.04S


$$

NCZ011>013-027>030-043-044-078>080-089-090>093-098-010900-
COASTAL PLAIN

CITY           SKY/WX    TMP DP  RH WIND       PRES   REMARKS
AHOSKIE        FOG       70  70  99 CALM      30.05S VSB 1/4
CLINTON        FOG       72  72 100 NW5       30.06S VSB 1/2
ELIZABETHTOWN  CLOUDY    73  73 100 CALM      30.06S
GOLDSBORO      FOG       73  73 100 NW3       30.04S VSB 1/4
GREENVILLE     CLOUDY    73  73 100 CALM      30.06S FOG
HAVELOCK       CLOUDY    75  74  96 NW8       30.04S
KENANSVILLE      N/A     73  72  96 W3        30.06S
KINSTON        MOCLDY    74  73  99 CALM      30.05S FOG
NEW BERN       CLOUDY    75  73  93 CALM      30.04S
RICHLANDS      CLOUDY    73  68  83 CALM      30.04F
ROCKY MOUNT    FOG       72  72 100 W5        30.06R VSB 1
WASHINGTON     FOG       73  72  98 CALM      30.03F VSB 1
WHITEVILLE     CLOUDY    73  73  97 CALM      30.06S FOG

$$

AMZ130-135-150-152-154-156-158-170-250-252-270-ANZ085-086-088-633-658-670-010900-
MARINE OBSERVATIONS

STATION/POSITION TIME  TEMP    WIND        PRES    WAVE   SWELL
                       AIR SEA DIR/SP/G            HT/PER HT/PER
                 (UTC) (F)     (DEG/KT/KT) (MB)    (FT/S) (FT/S)
CHESAPEAKE LIGHT 0800   76        CALM     1018.0
64 E VA BEACH    0750   77 78   80/  8/  8 1016.9    2/ 8   2/ 8
DUCK             0800   76 78  120/  7/  8 1016.1
2 E DUCK         0741      78                N/A     2/ 9
OREGON INLET     0800   75 79  330/  4/  5 1016.4
13E OREGON INLT  0800      78                N/A     3/ 8
HATTERAS CG      0800   78 80  230/  4/  6 1015.9
DIAMOND BUOY     0750   78 84  210/  8/ 12 1016.6    4/ 8   3/ 8
CAPE LOOKOUT     0800   78     320/ 10/ 13 1016.1
BEAUFORT LAB     0800   76 79  330/  5/  9 1015.9
30 SE NEW RVR IN 0708   80 81  300/ 10/ 16 1017.1
30 SE NEW RVR IN 0755      81                N/A     4/ 6
27 SE WRIGHTSVLE 0800   75 81  310/ 10/ 12   N/A
5 SE WRIGHTSVLE  0708   76 81  300/ 10/ 12 1017.2
225 S CAPE HAT   0750   84 84  230/  8/ 10 1018.2    4/ 7   3/ 7
41 SE CHARLESTON 0750   82 82  260/  6/  8 1017.3    3/ 8   3/ 8

$$


USA.gov is the U.S. government's official web portal to all federal, state and local government web resources and services.